カタログに戻る

STARLINK-34518

運用中通信VLEO
NORAD 64480·PAYLOAD·🇺🇸 United States

打ち上げ Jun 23, 2025 から Cape Canaveral Space Force Station

Loading…

次のパス (今後24時間)

TLE

最新Source: CelesTrak SupGP

元期: Sep 14, 2026, 22:38 UTC

1 64480C 25133J   26257.94354167  .00030494  00000+0  90128-3 0  2576
2 64480  53.1570 315.5332 0001195  91.4845 322.2362 15.34363696    11

AllMySatでSTARLINK-34518をリアルタイム追跡

Download on the App Store